Tiempo cada hora Celestún

Hoy, 20 Abril, Martes

Tiempo Temperatura Precipitaciones Viento Presión Humedad
00:00 +27°C° 0 mm 2 mps 758 mmHg 87%
01:00 +26°C° 0 mm 2 mps 758 mmHg 88%
02:00 +26°C° 0 mm 2 mps 758 mmHg 89%
03:00 +26°C° 0 mm 2 mps 757 mmHg 90%
04:00 +26°C° 0 mm 2 mps 758 mmHg 90%
05:00 +26°C° 0 mm 1 mps 758 mmHg 89%
06:00 +26°C° 0 mm 1 mps 759 mmHg 89%
07:00 +28°C° 0 mm 1 mps 759 mmHg 77%
08:00 +31°C° 0 mm 1 mps 759 mmHg 65%
09:00 +34°C° 0 mm 1 mps 760 mmHg 53%
10:00 +34°C° 0 mm 2 mps 759 mmHg 55%
11:00 +34°C° 0 mm 3 mps 759 mmHg 57%
12:00 +33°C° 0 mm 4 mps 759 mmHg 59%
13:00 +33°C° 0 mm 3 mps 759 mmHg 60%
14:00 +33°C° 0 mm 3 mps 758 mmHg 60%
15:00 +33°C° 0 mm 3 mps 758 mmHg 61%
16:00 +33°C° 0 mm 3 mps 758 mmHg 65%
17:00 +31°C° 0 mm 3 mps 758 mmHg 68%
18:00 +30°C° 0 mm 3 mps 758 mmHg 72%
19:00 +29°C° 0.2 mm 3 mps 759 mmHg 76%
20:00 +28°C° 0.2 mm 3 mps 759 mmHg 80%
21:00 +28°C° 0.2 mm 4 mps 760 mmHg 85%
22:00 +27°C° 0.3 mm 3 mps 760 mmHg 86%
23:00 +27°C° 0.3 mm 3 mps 760 mmHg 87%

Mañana, 21 Abril, Miércoles

Tiempo Temperatura Precipitaciones Viento Presión Humedad
00:00 +26°C° 0.3 mm 3 mps 760 mmHg 88%
01:00 +26°C° 0 mm 3 mps 760 mmHg 89%
02:00 +26°C° 0 mm 3 mps 759 mmHg 90%
03:00 +26°C° 0 mm 3 mps 759 mmHg 91%
04:00 +26°C° 0.1 mm 3 mps 760 mmHg 91%
05:00 +25°C° 0.1 mm 3 mps 760 mmHg 92%
06:00 +25°C° 0.1 mm 3 mps 760 mmHg 92%
07:00 +28°C° 0.3 mm 2 mps 761 mmHg 80%
08:00 +30°C° 0.3 mm 2 mps 761 mmHg 67%
09:00 +34°C° 0.3 mm 2 mps 761 mmHg 54%
10:00 +34°C° 0.2 mm 2 mps 761 mmHg 56%
11:00 +33°C° 0.2 mm 3 mps 761 mmHg 58%
12:00 +33°C° 0.2 mm 3 mps 761 mmHg 60%
13:00 +33°C° 0.2 mm 4 mps 760 mmHg 62%
14:00 +32°C° 0.2 mm 4 mps 760 mmHg 63%
15:00 +32°C° 0.2 mm 5 mps 760 mmHg 65%
16:00 +30°C° 0 mm 5 mps 760 mmHg 67%
17:00 +30°C° 0 mm 6 mps 760 mmHg 69%
18:00 +29°C° 0 mm 6 mps 760 mmHg 71%
19:00 +29°C° 0.1 mm 6 mps 760 mmHg 73%
20:00 +28°C° 0.1 mm 5 mps 760 mmHg 75%
21:00 +28°C° 0.1 mm 5 mps 761 mmHg 77%
22:00 +27°C° 0 mm 5 mps 761 mmHg 78%
23:00 +27°C° 0 mm 5 mps 760 mmHg 80%

Pasado mañana, 22 Abril, Jueves

Tiempo Temperatura Precipitaciones Viento Presión Humedad
00:00 +26°C° 0 mm 5 mps 760 mmHg 82%
01:00 +26°C° 0 mm 5 mps 760 mmHg 84%
02:00 +26°C° 0 mm 4 mps 760 mmHg 86%
03:00 +25°C° 0 mm 4 mps 759 mmHg 88%
04:00 +25°C° 0 mm 4 mps 760 mmHg 89%
05:00 +25°C° 0 mm 4 mps 760 mmHg 91%
06:00 +25°C° 0 mm 4 mps 760 mmHg 93%
07:00 +27°C° 0 mm 4 mps 761 mmHg 81%
08:00 +29°C° 0 mm 4 mps 761 mmHg 68%
09:00 +33°C° 0 mm 4 mps 761 mmHg 56%
10:00 +35°C° 0 mm 4 mps 761 mmHg 49%
11:00 +36°C° 0 mm 4 mps 760 mmHg 41%
12:00 +38°C° 0 mm 3 mps 760 mmHg 34%
13:00 +38°C° 0 mm 4 mps 759 mmHg 35%
14:00 +39°C° 0 mm 5 mps 758 mmHg 35%
15:00 +39°C° 0 mm 6 mps 758 mmHg 36%
16:00 +35°C° 0 mm 6 mps 758 mmHg 45%
17:00 +33°C° 0 mm 7 mps 758 mmHg 54%
18:00 +30°C° 0 mm 7 mps 758 mmHg 63%
19:00 +29°C° 0 mm 7 mps 759 mmHg 65%
20:00 +29°C° 0 mm 7 mps 759 mmHg 66%
21:00 +28°C° 0 mm 7 mps 760 mmHg 68%
22:00 +28°C° 0 mm 6 mps 760 mmHg 65%
23:00 +28°C° 0 mm 6 mps 760 mmHg 62%

23 Abril, Viernes

Tiempo Temperatura Precipitaciones Viento Presión Humedad
00:00 +28°C° 0 mm 5 mps 760 mmHg 58%
01:00 +27°C° 0 mm 6 mps 759 mmHg 64%
02:00 +26°C° 0 mm 6 mps 759 mmHg 69%
03:00 +24°C° 0 mm 6 mps 759 mmHg 75%
04:00 +24°C° 0 mm 6 mps 759 mmHg 78%
05:00 +24°C° 0 mm 6 mps 759 mmHg 80%
06:00 +24°C° 0 mm 6 mps 760 mmHg 83%
07:00 +27°C° 0 mm 6 mps 760 mmHg 72%
08:00 +30°C° 0 mm 6 mps 760 mmHg 61%
09:00 +33°C° 0 mm 6 mps 760 mmHg 50%
10:00 +35°C° 0 mm 5 mps 759 mmHg 44%
11:00 +37°C° 0 mm 4 mps 759 mmHg 38%
12:00 +39°C° 0 mm 3 mps 758 mmHg 32%
13:00 +40°C° 0 mm 4 mps 758 mmHg 31%
14:00 +40°C° 0 mm 4 mps 757 mmHg 31%
15:00 +41°C° 0 mm 5 mps 756 mmHg 31%
16:00 +39°C° 0 mm 5 mps 756 mmHg 33%
17:00 +37°C° 0 mm 5 mps 756 mmHg 35%
18:00 +36°C° 0 mm 5 mps 755 mmHg 37%
19:00 +35°C° 0 mm 6 mps 756 mmHg 41%
20:00 +34°C° 0 mm 6 mps 757 mmHg 44%
21:00 +33°C° 0 mm 7 mps 757 mmHg 48%
22:00 +30°C° 0 mm 7 mps 757 mmHg 55%
23:00 +29°C° 0 mm 7 mps 757 mmHg 61%

24 Abril, Sábado

Tiempo Temperatura Precipitaciones Viento Presión Humedad
00:00 +28°C° 0 mm 7 mps 757 mmHg 68%
01:00 +27°C° 0 mm 8 mps 757 mmHg 71%
02:00 +27°C° 0 mm 8 mps 756 mmHg 75%
03:00 +26°C° 0 mm 8 mps 756 mmHg 78%
04:00 +26°C° 0 mm 8 mps 756 mmHg 78%
05:00 +26°C° 0 mm 8 mps 756 mmHg 78%
06:00 +26°C° 0 mm 8 mps 756 mmHg 78%
07:00 +28°C° 0 mm 8 mps 756 mmHg 68%
08:00 +32°C° 0 mm 7 mps 757 mmHg 57%
09:00 +34°C° 0 mm 7 mps 757 mmHg 47%
10:00 +36°C° 0 mm 6 mps 757 mmHg 41%
11:00 +39°C° 0 mm 5 mps 756 mmHg 36%
12:00 +41°C° 0 mm 5 mps 756 mmHg 31%
13:00 +40°C° 0 mm 5 mps 755 mmHg 36%
14:00 +39°C° 0 mm 5 mps 755 mmHg 41%
15:00 +36°C° 0 mm 5 mps 755 mmHg 46%
16:00 +35°C° 0 mm 5 mps 755 mmHg 51%
17:00 +33°C° 0 mm 5 mps 755 mmHg 57%
18:00 +32°C° 0 mm 6 mps 756 mmHg 62%
19:00 +30°C° 0 mm 5 mps 756 mmHg 66%
20:00 +29°C° 0 mm 5 mps 757 mmHg 71%
21:00 +29°C° 0 mm 4 mps 757 mmHg 75%
22:00 +28°C° 0 mm 4 mps 757 mmHg 75%
23:00 +28°C° 0 mm 4 mps 757 mmHg 76%

25 Abril, Domingo

Tiempo Temperatura Precipitaciones Viento Presión Humedad
00:00 +28°C° 0 mm 4 mps 757 mmHg 76%
01:00 +27°C° 0 mm 3 mps 757 mmHg 73%
02:00 +27°C° 0 mm 3 mps 757 mmHg 71%
03:00 +26°C° 0 mm 3 mps 757 mmHg 68%
04:00 +26°C° 0 mm 3 mps 757 mmHg 73%
05:00 +25°C° 0 mm 3 mps 758 mmHg 79%
06:00 +24°C° 0 mm 3 mps 759 mmHg 84%
07:00 +27°C° 0 mm 3 mps 759 mmHg 72%
08:00 +30°C° 0 mm 2 mps 759 mmHg 61%
09:00 +32°C° 0 mm 2 mps 759 mmHg 49%
10:00 +34°C° 0 mm 3 mps 759 mmHg 47%
11:00 +35°C° 0 mm 3 mps 759 mmHg 45%
12:00 +36°C° 0 mm 4 mps 759 mmHg 43%
13:00 +35°C° 0 mm 4 mps 759 mmHg 45%
14:00 +35°C° 0 mm 4 mps 758 mmHg 47%
15:00 +34°C° 0 mm 4 mps 758 mmHg 49%
16:00 +33°C° 0 mm 4 mps 758 mmHg 55%
17:00 +32°C° 0 mm 5 mps 758 mmHg 62%
18:00 +29°C° 0 mm 5 mps 758 mmHg 68%
19:00 +29°C° 0 mm 5 mps 758 mmHg 74%
20:00 +28°C° 0 mm 5 mps 759 mmHg 80%
21:00 +27°C° 0 mm 5 mps 759 mmHg 86%
22:00 +27°C° 0 mm 5 mps 759 mmHg 89%
23:00 +26°C° 0 mm 4 mps 759 mmHg 92%
Mostrar más

Necesitamos Su Consentimiento

Meteoprog y nuestros Proveedores de Servicios pueden almacenar y acceder a sus datos personales como cookies, identificadores de dispositivo u otras tecnologías similares de su dispositivo y procesar dichos datos para personalizar contenido y anuncios, además de ofrecer funciones de redes sociales y analizar el tráfico.

  • Almacenar y/o acceder a información en su dispositivo

    Se puede almacenar o acceder a cookies, identificadores de dispositivo u otra información de su dispositivo para los fines anteriormente indicados.

  • Anuncios y contenido personalizados, medición de anuncios y contenido, percepciones del público, y desarrollo de productos

    Los anuncios y el contenido pueden personalizarse en base a su perfil. Se pueden añadir más datos para personalizar mejor los anuncios y contenidos. Se puede medir el rendimiento de los anuncios y contenidos. Se puede obtener la percepción sobre el público que ha visto los anuncios y contenidos. Dichos datos pueden usarse para desarrollar o mejorar la experiencia del usuario, sistemas y software.

Al hacer clic en ‘Estoy De Acuerdo’ usted permitirá el uso de las cookies, identificadores de dispositivo, balizas web u otras tecnologías similares indicadas. Su configuración puede cambiarse desde el navegador de su dispositivo.

Para ciertos fines, los intereses legítimos pueden ser considerados por encima del consentimiento. Puede leer más sobre ello en nuestra Política de Privacidad y Cookies.